Location: ????????
(41.2031°N, 22.5756°E)
Time: 05:21:41
(UTC+00:00)

H-2A R/B - Pass Details

Date: 01 December 2020
Orbit: 733 x 836 km, 98.2° (Epoch: 20 January)

Event Time Altitude Azimuth Distance (km) Brightness Sun altitude
Exits shadow 15:54:50 13° 65° (ENE) 2,174 3.7 -9.9°
Maximum altitude 15:55:15 13° 60° (ENE) 2,165 3.7 -10.0°
Drops below altitude 10° 15:57:24 10° 35° (NE) 2,340 4.0 -10.4°
Sets 16:01:02 0° 8° (N) 3,248 5.0 -11.0°
